This is the latest recevied weather packets stored in our database for station/object KM5R. If no packets are shown the sender has not sent any weather packets the latest 10 day(s).
| Time | Temp. | Humidity | Pressure | Rain* | Wind** | Luminosity | Snow |
|---|---|---|---|---|---|---|---|
| 1777769907 | 21.11° C | 41% | 1021.6 hPa | 0 mm | - | 11 W/m² | - |
| 1777769604 | 21.11° C | 43% | 1021.7 hPa | 0 mm | - | 16 W/m² | - |
| 1777769300 | 21.11° C | 46% | 1021.5 hPa | 0 mm | - | 19 W/m² | - |
| 1777768998 | 21.67° C | 46% | 1021.5 hPa | 0 mm | - | 22 W/m² | - |
| 1777768696 | 21.67° C | 43% | 1021.4 hPa | 0 mm | - | 26 W/m² | - |
| 1777768392 | 21.67° C | 42% | 1021.5 hPa | 0 mm | - | 31 W/m² | - |
| 1777768089 | 22.22° C | 40% | 1021.5 hPa | 0 mm | - | 35 W/m² | - |
| 1777767787 | 22.22° C | 41% | 1021.7 hPa | 0 mm | - | 42 W/m² | - |
| 1777767483 | 22.22° C | 41% | 1021.7 hPa | 0 mm | - | 42 W/m² | - |
| 1777767179 | 22.22° C | 42% | 1021.6 hPa | 0 mm | - | 66 W/m² | - |
| 1777766877 | 22.22° C | 42% | 1021.7 hPa | 0 mm | - | 52 W/m² | - |
| 1777766574 | 22.22° C | 42% | 1021.5 hPa | 0 mm | - | 100 W/m² | - |
| 1777766271 | 21.67° C | 42% | 1021.6 hPa | 0 mm | - | 57 W/m² | - |
| 1777765969 | 21.67° C | 42% | 1021.6 hPa | 0 mm | - | 116 W/m² | - |
| 1777765664 | 21.67° C | 42% | 1021.5 hPa | 0 mm | - | 52 W/m² | - |
| 1777765362 | 21.67° C | 43% | 1021.5 hPa | 0 mm | - | 144 W/m² | - |
| 1777765058 | 21.67° C | 41% | 1021.5 hPa | 0 mm | - | 147 W/m² | - |
| 1777764755 | 22.22° C | 38% | 1021.5 hPa | 0 mm | - | 53 W/m² | - |
| 1777764450 | 22.78° C | 36% | 1021.4 hPa | 0 mm | - | 58 W/m² | - |
| 1777764148 | 22.78° C | 34% | 1021.5 hPa | 0 mm | - | 201 W/m² | - |
| 1777763844 | 23.33° C | 34% | 1021.3 hPa | 0 mm | - | 218 W/m² | - |
| 1777763542 | 22.78° C | 36% | 1021.6 hPa | 0 mm | - | 252 W/m² | - |
| 1777763241 | 22.78° C | 34% | 1021.5 hPa | 0 mm | - | 272 W/m² | - |
| 1777762939 | 22.78° C | 34% | 1021.5 hPa | 0 mm | - | 264 W/m² | - |
| 1777762634 | 22.22° C | 38% | 1021.6 hPa | 0 mm | - | 246 W/m² | - |
* Rain latest hour (hover to see other rain measurements)
** Current wind speed in m/s (hover to see current wind gust speed)